Terminal Aerodrome Forecast
Issued by NWS

Home | Current Version | Previous Version | Text Only | Print | Product List | Glossary Off
Versions: 1 2 3 4 5 6 7 8 9 10 11 12 13 14 15 16 17 18 19 20

000
FTUS43 KTOP 300520
TAFMHK
TAF
KMHK 300520Z 3006/0106 08011KT P6SM -SHRA VCTS BKN006 OVC012CB
      TEMPO 3006/3010 5SM BR
     FM301100 11006KT 5SM BR BKN007 OVC015
     FM301400 23008KT P6SM BKN008 OVC015
     FM301700 26011KT P6SM BKN015 OVC020
     FM302200 28008KT P6SM SCT030 BKN040=

USA.gov is the U.S. government's official web portal to all federal, state and local government web resources and services.